This is the latest recevied weather packets stored in our database for station/object DG1ROH. If no packets are shown the sender has not sent any weather packets the latest 1 day(s).
| Time | Temp. | Humidity | Pressure | Rain* | Wind** | Luminosity | Snow |
|---|---|---|---|---|---|---|---|
| 1777982793 | 16.11° C | 86% | 1008.8 hPa | 0 mm | 0.45 m/s, 147° | 390 W/m² | - |
| 1777982673 | 16.11° C | 85% | 1008.8 hPa | 0 mm | 0.45 m/s, 165° | 325 W/m² | - |
| 1777982553 | 16.11° C | 85% | 1008.8 hPa | 0 mm | 0.89 m/s, 59° | 250 W/m² | - |
| 1777982432 | 16.11° C | 86% | 1008.8 hPa | 0 mm | 0.89 m/s, 59° | 260 W/m² | - |
| 1777982312 | 16.11° C | 85% | 1008.7 hPa | 0 mm | 0.89 m/s, 57° | 302 W/m² | - |
| 1777982192 | 16.11° C | 85% | 1008.7 hPa | 0 mm | 0.89 m/s, 56° | 276 W/m² | - |
| 1777982072 | 16.11° C | 86% | 1008.7 hPa | 0 mm | 0.89 m/s, 341° | 236 W/m² | - |
| 1777981953 | 16.11° C | 85% | 1008.8 hPa | 0 mm | 0.45 m/s, 342° | 172 W/m² | - |
| 1777981833 | 16.11° C | 85% | 1008.7 hPa | 0 mm | 0.45 m/s, 68° | 188 W/m² | - |
| 1777981713 | 16.11° C | 85% | 1008.8 hPa | 0 mm | 0.45 m/s, 44° | 220 W/m² | - |
| 1777981593 | 16.11° C | 86% | 1008.7 hPa | 0 mm | 0.45 m/s, 57° | 269 W/m² | - |
| 1777981472 | 16.11° C | 87% | 1008.7 hPa | 0 mm | 0.45 m/s, 73° | 304 W/m² | - |
| 1777981359 | 16.11° C | 86% | 1008.7 hPa | 0 mm | 0.89 m/s, 73° | 292 W/m² | - |
| 1777981233 | 16.11° C | 87% | 1008.7 hPa | 0 mm | 0.89 m/s, 72° | 292 W/m² | - |
| 1777981113 | 16.11° C | 87% | 1008.7 hPa | 0 mm | 0.89 m/s, 118° | 315 W/m² | - |
| 1777980993 | 15.56° C | 86% | 1008.7 hPa | 0 mm | 0.89 m/s, 45° | 343 W/m² | - |
| 1777980872 | 15.56° C | 87% | 1008.6 hPa | 0 mm | 0.89 m/s, 57° | 369 W/m² | - |
| 1777980753 | 15.56° C | 88% | 1008.6 hPa | 0 mm | 0.89 m/s, 68° | 357 W/m² | - |
| 1777980633 | 15.56° C | 88% | 1008.8 hPa | 0 mm | 0.89 m/s, 61° | 380 W/m² | - |
| 1777980513 | 15.56° C | 88% | 1008.8 hPa | 0 mm | 0.89 m/s, 41° | 396 W/m² | - |
| 1777980393 | 15° C | 88% | 1008.8 hPa | 0 mm | 0.89 m/s, 40° | 320 W/m² | - |
| 1777980273 | 15.56° C | 88% | 1008.9 hPa | 0 mm | 0.89 m/s, 58° | 285 W/m² | - |
| 1777980153 | 15.56° C | 88% | 1008.9 hPa | 0 mm | 0.89 m/s, 43° | 262 W/m² | - |
| 1777980032 | 15° C | 88% | 1008.9 hPa | 0 mm | 0.89 m/s, 24° | 301 W/m² | - |
| 1777979913 | 15° C | 88% | 1008.9 hPa | 0 mm | 0.89 m/s, 82° | 329 W/m² | - |
* Rain latest hour (hover to see other rain measurements)
** Current wind speed in m/s (hover to see current wind gust speed)